CW7931 Weather Reports


Display with metric or nautical units.
time (UTC)temp
F
wind
direction
speed
MPH
gust
MPH
rain 1hr
in
rain 24hr
in
rain mn
in
humidity
%
barometer
mb
20210122031712 35 28 4.0 12.0 0.00 0.00 0.00 69 1003.8
20210122031110 35 360 3.0 12.0 0.00 0.00 0.00 68 1003.7
20210122030544 35 53 5.0 10.0 0.00 0.00 0.00 66 1003.6
20210122030154 35 360 4.0 10.0 0.00 0.00 0.00 66 1003.5
20210122025541 36 360 5.0 10.0 0.00 0.00 0.00 67 1003.3
20210122025108 36 16 4.0 15.0 0.00 0.00 0.00 66 1003.3
20210122024609 36 38 6.0 15.0 0.00 0.00 0.00 66 1003.3
20210122024051 36 289 7.0 16.0 0.00 0.00 0.00 65 1003.2
20210122023548 36 39 8.0 16.0 0.00 0.00 0.00 65 1003.2
20210122023043 36 348 5.0 16.0 0.00 0.00 0.00 66 1003.3
20210122022055 36 309 4.0 12.0 0.00 0.00 0.00 65 1003.5
20210122021637 36 338 6.0 12.0 0.00 0.00 0.00 65 1003.6
20210122021106 36 26 5.0 12.0 0.00 0.00 0.00 66 1003.5
20210122020542 36 324 6.0 13.0 0.00 0.00 0.00 66 1003.4
20210122020116 35 328 7.0 13.0 0.00 0.00 0.00 67 1003.4
20210122015541 35 350 3.0 8.0 0.00 0.00 0.00 68 1003.5
20210122015042 35 321 3.0 9.0 0.00 0.00 0.00 68 1003.4
20210122014638 35 360 4.0 9.0 0.00 0.00 0.00 67 1003.5
20210122014051 35 17 3.0 9.0 0.00 0.00 0.00 68 1003.6
20210122013607 35 26 2.0 6.0 0.00 0.00 0.00 68 1003.6
20210122013056 35 333 3.0 8.0 0.00 0.00 0.00 68 1003.6
20210122012045 35 360 2.0 9.0 0.00 0.00 0.00 68 1003.5
20210122011621 35 333 3.0 8.0 0.00 0.00 0.00 68 1003.5
20210122011036 35 346 3.0 8.0 0.00 0.00 0.00 69 1003.6
20210122010545 35 360 3.0 8.0 0.00 0.00 0.00 68 1003.6
20210122010122 34 5 3.0 8.0 0.00 0.00 0.00 69 1003.6
20210122005540 34 360 2.0 6.0 0.00 0.00 0.00 70 1003.7
20210122005036 35 346 2.0 6.0 0.00 0.00 0.00 68 1003.7
20210122004606 35 19 2.0 9.0 0.00 0.00 0.00 68 1003.8
20210122004046 35 360 3.0 9.0 0.00 0.00 0.00 67 1003.7
20210122003541 35 360 3.0 9.0 0.00 0.00 0.00 67 1003.6
20210122003147 35 335 2.0 10.0 0.00 0.00 0.00 68 1003.7
20210122002102 35 350 2.0 6.0 0.00 0.00 0.00 67 1003.8
20210122001813 35 327 4.0 9.0 0.00 0.00 0.00 66 1003.8
20210122001046 35 18 4.0 9.0 0.00 0.00 0.00 66 1003.8
20210122000545 35 346 3.0 12.0 0.00 0.00 0.00 66 1003.9
20210122000122 35 323 6.0 12.0 0.00 0.00 0.00 66 1004.0
20210121235613 35 360 2.0 8.0 0.00 0.00 0.00 66 1004.0
20210121235050 35 360 3.0 6.0 0.00 0.00 0.00 66 1004.1
20210121234655 35 360 3.0 7.0 0.00 0.00 0.00 66 1004.2
20210121234101 35 360 2.0 9.0 0.00 0.00 0.00 66 1004.2
20210121233557 35 27 2.0 10.0 0.00 0.00 0.00 66 1004.1
20210121233139 35 360 4.0 10.0 0.00 0.00 0.00 65 1004.1
20210121232044 35 328 4.0 10.0 0.00 0.00 0.00 66 1004.1
20210121231601 35 348 3.0 10.0 0.00 0.00 0.00 66 1004.1
20210121231043 35 348 4.0 10.0 0.00 0.00 0.00 65 1004.2
20210121230543 35 347 3.0 8.0 0.00 0.00 0.00 65 1004.1
20210121230210 35 5 1.0 8.0 0.00 0.00 0.00 65 1004.0
20210121225544 35 323 3.0 6.0 0.00 0.00 0.00 64 1004.0
20210121225044 35 290 2.0 10.0 0.00 0.00 0.00 64 1004.0
20210121224623 35 15 2.0 10.0 0.00 0.00 0.00 63 1003.9
20210121224054 35 360 3.0 11.0 0.00 0.00 0.00 64 1003.9
20210121223555 36 332 4.0 11.0 0.00 0.00 0.00 63 1003.9
20210121223135 36 360 3.0 9.0 0.00 0.00 0.00 62 1003.9
20210121222021 36 336 3.0 11.0 0.00 0.00 0.00 63 1004.0
20210121221521 36 295 4.0 10.0 0.00 0.00 0.00 62 1003.9
20210121221014 36 346 3.0 8.0 0.00 0.00 0.00 62 1003.9
20210121220514 36 32 3.0 11.0 0.00 0.00 0.00 62 1003.9
20210121220025 37 355 6.0 11.0 0.00 0.00 0.00 61 1003.8
20210121215511 37 327 6.0 14.0 0.00 0.00 0.00 60 1003.7
20210121215021 37 360 7.0 14.0 0.00 0.00 0.00 59 1003.8
20210121214523 37 348 3.0 8.0 0.00 0.00 0.00 59 1003.7
20210121214011 38 5 3.0 13.0 0.00 0.00 0.00 59 1003.7
20210121213512 38 5 6.0 13.0 0.00 0.00 0.00 59 1003.6
20210121213019 38 348 2.0 12.0 0.00 0.00 0.00 59 1003.6
20210121212055 39 17 3.0 11.0 0.00 0.00 0.00 57 1003.5
20210121211734 39 13 5.0 11.0 0.00 0.00 0.00 57 1003.4
20210121211100 39 309 3.0 6.0 0.00 0.00 0.00 57 1003.4
20210121210554 39 40 2.0 10.0 0.00 0.00 0.00 57 1003.5
20210121210241 39 342 4.0 10.0 0.00 0.00 0.00 57 1003.5
20210121205604 40 343 2.0 8.0 0.00 0.00 0.00 56 1003.4
20210121205057 40 10 2.0 10.0 0.00 0.00 0.00 56 1003.4
20210121204617 40 342 4.0 12.0 0.00 0.00 0.00 56 1003.4
20210121204055 40 11 4.0 12.0 0.00 0.00 0.00 56 1003.4
20210121203610 40 321 4.0 12.0 0.00 0.00 0.00 58 1003.4
20210121203113 39 5 6.0 12.0 0.00 0.00 0.00 56 1003.4
20210121202101 40 327 5.0 12.0 0.00 0.00 0.00 56 1003.5
20210121201731 40 20 3.0 10.0 0.00 0.00 0.00 57 1003.4
20210121201050 39 337 4.0 12.0 0.00 0.00 0.00 57 1003.5
20210121200547 40 331 4.0 12.0 0.00 0.00 0.00 57 1003.5
20210121200046 39 360 3.0 12.0 0.00 0.00 0.00 58 1003.6
20210121195544 39 360 7.0 12.0 0.00 0.00 0.00 57 1003.7
20210121195046 39 346 5.0 12.0 0.00 0.00 0.00 58 1003.7
20210121194610 39 360 4.0 16.0 0.00 0.00 0.00 58 1003.8
20210121194043 39 336 8.0 16.0 0.00 0.00 0.00 58 1003.7
20210121193544 39 308 4.0 11.0 0.00 0.00 0.00 60 1003.7
20210121193244 38 360 5.0 15.0 0.00 0.00 0.00 60 1003.8
20210121192038 38 346 6.0 15.0 0.00 0.00 0.00 60 1004.0
20210121191550 38 31 4.0 8.0 0.00 0.00 0.00 60 1004.0
20210121191033 38 27 4.0 13.0 0.00 0.00 0.00 61 1004.0
20210121190535 37 18 7.0 15.0 0.00 0.00 0.00 61 1003.9
20210121190054 37 348 7.0 15.0 0.00 0.00 0.00 61 1004.0
20210121185536 37 5 4.0 14.0 0.00 0.00 0.00 62 1004.0
20210121185029 37 355 4.0 14.0 0.00 0.00 0.00 62 1004.2
20210121184621 37 11 6.0 16.0 0.00 0.00 0.00 62 1004.2
20210121184028 36 360 9.0 16.0 0.00 0.00 0.00 62 1004.4
20210121183529 36 344 7.0 15.0 0.00 0.00 0.00 63 1004.4
20210121183054 36 5 5.0 13.0 0.00 0.00 0.00 64 1004.5
20210121182029 36 360 3.0 12.0 0.00 0.00 0.00 65 1004.6
20210121181525 35 15 6.0 12.0 0.00 0.00 0.00 64 1004.7
20210121181024 35 50 2.0 9.0 0.00 0.00 0.00 65 1004.8
20210121180527 35 311 3.0 13.0 0.00 0.00 0.00 66 1004.9
20210121180050 35 12 4.0 13.0 0.00 0.00 0.00 67 1005.1
20210121175523 35 12 7.0 12.0 0.00 0.00 0.00 64 1005.1
20210121175024 35 360 2.0 13.0 0.00 0.00 0.00 67 1005.1
20210121174530 34 334 4.0 13.0 0.00 0.00 0.00 68 1005.2
20210121174025 33 46 4.0 10.0 0.00 0.00 0.00 67 1005.3
20210121173520 33 17 3.0 11.0 0.00 0.00 0.00 69 1005.5
20210121173038 33 15 5.0 11.0 0.00 0.00 0.00 68 1005.6
20210121172023 32 347 3.0 11.0 0.00 0.00 0.00 70 1005.9
20210121171516 32 38 5.0 11.0 0.00 0.00 0.00 69 1006.0
20210121171020 32 349 5.0 12.0 0.00 0.00 0.00 68 1006.2
20210121170516 31 5 5.0 12.0 0.00 0.00 0.00 69 1006.2
20210121170023 31 327 7.0 12.0 0.00 0.00 0.00 69 1006.2
20210121165520 31 326 6.0 14.0 0.00 0.00 0.00 69 1006.2
20210121165009 31 332 3.0 14.0 0.00 0.00 0.00 71 1006.3
20210121164517 30 340 6.0 13.0 0.00 0.00 0.00 70 1006.3
20210121163620 30 360 8.0 13.0 0.00 0.01 0.00 70 1006.6
20210121163113 30 333 3.0 11.0 0.00 0.01 0.00 71 1006.8
20210121162018 29 360 4.0 12.0 0.00 0.01 0.00 72 1007.1
20210121161704 29 335 6.0 12.0 0.00 0.01 0.00 71 1007.1
20210121161100 29 323 5.0 10.0 0.00 0.01 0.00 72 1007.1
20210121160559 29 14 3.0 10.0 0.00 0.01 0.00 72 1007.5
20210121160201 28 17 3.0 15.0 0.00 0.01 0.00 71 1007.5
20210121155613 28 292 6.0 15.0 0.00 0.01 0.00 71 1007.6
20210121155056 28 360 7.0 14.0 0.00 0.01 0.00 70 1007.6
20210121154742 28 56 2.0 12.0 0.00 0.01 0.00 72 1007.5
20210121154104 28 19 5.0 12.0 0.00 0.01 0.00 71 1007.5
20210121153554 28 10 5.0 15.0 0.00 0.01 0.00 71 1007.5
20210121153145 28 20 9.0 15.0 0.00 0.01 0.00 71 1007.5
20210121152553 28 360 4.0 10.0 0.00 0.01 0.00 71 1007.7
20210121152055 28 360 3.0 10.0 0.00 0.01 0.00 72 1007.8
20210121151641 28 319 3.0 10.0 0.00 0.01 0.00 72 1007.7
20210121151054 27 326 5.0 17.0 0.00 0.01 0.00 71 1007.8
20210121150548 27 360 7.0 17.0 0.00 0.01 0.00 70 1007.7
20210121150149 28 335 6.0 13.0 0.00 0.01 0.00 70 1007.7
20210121145546 27 337 4.0 16.0 0.00 0.01 0.00 71 1007.6
20210121145052 27 321 8.0 16.0 0.00 0.01 0.00 71 1007.6
20210121144623 27 310 5.0 13.0 0.00 0.01 0.00 71 1007.9
20210121144043 27 360 6.0 13.0 0.00 0.01 0.00 71 1007.9
20210121143609 27 346 6.0 12.0 0.00 0.01 0.00 72 1008.0
20210121143128 26 303 3.0 15.0 0.00 0.01 0.00 72 1008.2
20210121142056 26 315 7.0 12.0 0.00 0.01 0.00 72 1008.2
20210121141631 26 331 4.0 10.0 0.00 0.01 0.00 72 1008.5
20210121141052 26 346 3.0 9.0 0.00 0.01 0.00 73 1008.5
20210121140555 26 360 4.0 11.0 0.00 0.01 0.00 73 1008.7
20210121140103 25 55 6.0 11.0 0.00 0.01 0.00 73 1008.7
20210121135559 25 274 1.0 9.0 0.00 0.01 0.00 74 1008.6
20210121135048 25 5 3.0 9.0 0.00 0.01 0.00 74 1008.5
20210121134613 25 331 3.0 10.0 0.00 0.01 0.00 74 1008.6
20210121134051 25 286 4.0 10.0 0.00 0.01 0.00 74 1008.6
20210121133609 24 302 4.0 12.0 0.00 0.01 0.00 75 1008.6
20210121133054 24 360 2.0 11.0 0.00 0.01 0.00 75 1008.7
20210121132546 24 332 1.0 11.0 0.00 0.01 0.00 75 1009.0
20210121132053 24 38 1.0 11.0 0.00 0.01 0.00 75 1009.0
20210121131545 24 321 6.0 11.0 0.00 0.01 0.00 75 1008.8
20210121131028 24 5 2.0 6.0 0.00 0.01 0.00 76 1008.8
20210121130526 23 330 3.0 6.0 0.00 0.01 0.00 76 1008.8
20210121130119 23 338 4.0 7.0 0.00 0.01 0.00 76 1008.7
20210121125541 23 36 2.0 9.0 0.00 0.01 0.00 75 1008.9
20210121125025 23 360 4.0 9.0 0.00 0.01 0.00 75 1008.9
20210121124535 23 360 3.0 10.0 0.00 0.01 0.00 75 1008.9
20210121124034 23 343 4.0 10.0 0.00 0.01 0.00 76 1009.1
20210121123526 23 343 4.0 9.0 0.00 0.01 0.00 76 1009.1
20210121123040 23 360 3.0 12.0 0.00 0.01 0.00 76 1009.2
20210121122537 23 301 3.0 10.0 0.00 0.01 0.00 77 1009.3
20210121122021 23 333 3.0 10.0 0.00 0.01 0.00 77 1009.4
20210121121529 22 319 4.0 10.0 0.00 0.01 0.00 77 1009.5
20210121121049 22 293 0.0 5.0 0.00 0.01 0.00 78 1009.6
20210121120712 22 360 2.0 4.0 0.00 0.01 0.00 78 1009.6
20210121120030 22 360 2.0 5.0 0.00 0.01 0.00 78 1009.5
20210121115526 21 360 3.0 9.0 0.00 0.01 0.00 78 1009.4
20210121115028 21 321 4.0 9.0 0.00 0.01 0.00 79 1009.2
20210121114532 21 334 2.0 8.0 0.00 0.01 0.00 78 1009.4
20210121114021 21 278 3.0 8.0 0.00 0.01 0.00 79 1009.5
20210121113521 21 302 2.0 6.0 0.00 0.01 0.00 79 1009.6
20210121113022 21 332 3.0 6.0 0.00 0.01 0.00 79 1009.4
20210121112029 20 338 3.0 8.0 0.00 0.01 0.00 79 1009.6
20210121111530 20 299 3.0 7.0 0.00 0.01 0.00 79 1009.6
20210121111036 20 258 3.0 9.0 0.00 0.01 0.00 79 1009.6
20210121110523 20 319 4.0 9.0 0.00 0.01 0.00 79 1009.7
20210121110022 20 300 4.0 9.0 0.00 0.01 0.00 79 1009.9
20210121105541 20 360 3.0 6.0 0.00 0.01 0.00 79 1009.9
20210121105021 20 299 3.0 11.0 0.00 0.01 0.00 79 1010.0
20210121104522 20 360 3.0 11.0 0.00 0.01 0.00 79 1010.2
20210121104023 20 329 4.0 11.0 0.00 0.01 0.00 79 1010.1
20210121103513 20 48 3.0 9.0 0.00 0.01 0.00 80 1010.3
20210121103017 20 346 4.0 9.0 0.00 0.01 0.00 79 1010.4
20210121102019 20 13 2.0 5.0 0.00 0.01 0.00 79 1010.4
20210121101510 20 360 1.0 5.0 0.00 0.01 0.00 79 1010.6
20210121101020 19 304 1.0 6.0 0.00 0.01 0.00 79 1010.7
20210121100509 19 360 3.0 9.0 0.00 0.01 0.00 79 1010.7
20210121100123 19 343 2.0 9.0 0.00 0.01 0.00 79 1010.7
20210121095602 19 5 3.0 8.0 0.00 0.01 0.00 79 1010.8
20210121095058 19 287 3.0 9.0 0.00 0.01 0.00 79 1011.0
20210121094732 19 312 3.0 9.0 0.00 0.01 0.00 79 1011.0
20210121094118 19 264 2.0 4.0 0.00 0.01 0.00 79 1011.2
20210121093612 19 321 1.0 8.0 0.00 0.01 0.00 80 1011.2
20210121093251 19 360 2.0 8.0 0.00 0.01 0.00 80 1011.2
20210121092612 18 5 1.0 6.0 0.00 0.01 0.00 80 1011.6
20210121091736 18 293 2.0 6.0 0.00 0.01 0.00 79 1011.7
20210121091104 18 360 3.0 11.0 0.00 0.01 0.00 79 1011.8
20210121090557 18 317 4.0 10.0 0.00 0.01 0.00 79 1012.0
20210121090123 18 347 3.0 7.0 0.00 0.01 0.00 79 1012.2
20210121085604 18 309 3.0 6.0 0.00 0.01 0.00 79 1012.3
20210121085055 18 340 3.0 9.0 0.00 0.01 0.00 79 1012.3
20210121084711 18 308 2.0 6.0 0.00 0.01 0.00 79 1012.6
20210121084059 18 360 1.0 7.0 0.00 0.01 0.00 79 1012.7
20210121083559 18 293 3.0 7.0 0.00 0.01 0.00 79 1012.8
20210121083252 18 252 0.0 3.0 0.00 0.01 0.00 79 1012.8
20210121082553 18 13 1.0 7.0 0.00 0.01 0.00 79 1012.7
20210121081721 18 261 0.0 5.0 0.00 0.01 0.00 78 1013.0
20210121081100 18 261 1.0 5.0 0.00 0.01 0.00 78 1013.1
20210121080603 18 360 0.0 6.0 0.00 0.01 0.00 78 1012.9
20210121080154 18 283 1.0 10.0 0.00 0.01 0.00 78 1012.9
20210121075600 18 263 6.0 12.0 0.00 0.01 0.00 77 1012.9
20210121075102 18 298 6.0 12.0 0.00 0.01 0.00 77 1013.1
20210121074635 18 285 3.0 8.0 0.00 0.01 0.00 77 1013.2
20210121074102 18 360 2.0 10.0 0.00 0.01 0.00 77 1013.4
20210121073556 18 360 2.0 9.0 0.00 0.01 0.00 78 1013.6
20210121073221 18 273 3.0 10.0 0.00 0.01 0.00 77 1013.9
20210121072552 18 330 4.0 10.0 0.00 0.01 0.00 77 1014.3
20210121071611 18 278 2.0 5.0 0.00 0.01 0.00 77 1014.3
20210121071030 18 360 1.0 3.0 0.00 0.01 0.00 77 1014.5
20210121070522 18 278 0.0 4.0 0.00 0.01 0.00 77 1014.3
20210121070041 18 284 2.0 4.0 0.00 0.01 0.00 76 1014.6
20210121065531 18 309 1.0 4.0 0.00 0.01 0.00 76 1014.6
20210121065023 18 290 1.0 8.0 0.00 0.01 0.00 76 1014.5
20210121064535 18 250 1.0 8.0 0.00 0.01 0.00 76 1014.4
20210121064025 18 250 2.0 7.0 0.00 0.01 0.00 76 1014.4
20210121063524 19 360 1.0 4.0 0.00 0.01 0.00 75 1014.6
20210121063027 19 360 0.0 5.0 0.00 0.01 0.00 75 1014.9
20210121061633 19 330 2.0 8.0 0.00 0.01 0.00 75 1015.3
20210121061037 19 273 3.0 6.0 0.00 0.01 0.00 75 1015.3
20210121060543 19 294 1.0 5.0 0.00 0.01 0.00 75 1015.4
20210121060057 19 224 2.0 5.0 0.00 0.01 0.00 75 1015.6
20210121055546 19 250 1.0 4.0 0.00 0.01 0.00 75 1015.9
20210121055039 19 250 1.0 5.0 0.00 0.01 0.00 75 1015.9
20210121054549 19 227 1.0 7.0 0.00 0.01 0.00 75 1015.9
20210121054045 19 296 2.0 9.0 0.00 0.01 0.00 75 1016.0
20210121053536 19 263 3.0 9.0 0.00 0.01 0.01 74 1016.0
20210121053120 18 360 2.0 9.0 0.00 0.01 0.01 75 1016.2
20210121052534 18 11 2.0 8.0 0.00 0.01 0.01 74 1016.4
20210121051533 18 336 2.0 6.0 0.00 0.01 0.01 75 1016.7
20210121051025 18 281 2.0 4.0 0.00 0.01 0.01 74 1016.7
20210121050529 18 309 1.0 6.0 0.00 0.01 0.01 74 1016.7
20210121050035 18 238 1.0 9.0 0.00 0.01 0.01 74 1016.8
20210121045525 18 248 3.0 9.0 0.00 0.01 0.01 74 1017.0
20210121045026 18 300 3.0 8.0 0.00 0.01 0.01 74 1017.1
20210121044540 17 295 3.0 8.0 0.00 0.01 0.01 74 1017.2
20210121044023 18 360 3.0 8.0 0.00 0.01 0.01 74 1017.3
20210121043524 18 302 2.0 6.0 0.00 0.01 0.01 73 1017.3
20210121043028 18 281 1.0 6.0 0.00 0.01 0.01 73 1017.4
20210121042531 18 360 1.0 4.0 0.00 0.01 0.01 73 1017.4
20210121041608 18 360 1.0 4.0 0.00 0.01 0.01 72 1017.8
20210121041026 18 313 2.0 4.0 0.00 0.01 0.01 72 1018.0
20210121040522 18 290 1.0 4.0 0.00 0.01 0.01 72 1018.3
20210121040035 19 327 1.0 6.0 0.00 0.01 0.01 71 1018.3
20210121035517 19 5 2.0 6.0 0.00 0.01 0.01 71 1018.4
20210121035028 19 360 2.0 5.0 0.00 0.01 0.01 71 1018.6
20210121034530 19 298 2.0 7.0 0.00 0.01 0.01 71 1018.7
20210121034022 19 360 2.0 7.0 0.00 0.01 0.01 71 1018.7
20210121033522 19 323 2.0 6.0 0.00 0.01 0.01 71 1018.8
20210121033038 19 360 2.0 4.0 0.00 0.01 0.01 71 1018.8
20210121032520 19 302 1.0 4.0 0.00 0.01 0.01 71 1018.8